GLO3433 SBEG-SBGR

Flight info

Callsign GLO3433
Flight time 3h 23m
Altitude 37000
Route ETAXA UZ87 OBLUG UZ42 ZARES
Aircraft B738/M-SDE2E3FGHIRWXY/LB1

Departure

Time 2026-04-21 20:47
Airport Eduardo Gomes International Airport (SBEG)

Arrival

Time 2026-04-22 00:10
Airport São Paulo/Guarulhos–Governor André Franco Montoro International Airport (SBGR)
Time Latitude Longitude Altitude Speed Heading
2026-04-21 20:34 -3.03279 -60.04572 271 ft 1 kts
2026-04-21 20:36 -3.03280 -60.04572 271 ft 1 kts
2026-04-21 20:37 -3.03296 -60.04573 271 ft 3 kts 355°
2026-04-21 20:37 -3.03316 -60.04569 271 ft 3 kts 339°
2026-04-21 20:37 -3.03333 -60.04560 271 ft 3 kts 317°
2026-04-21 20:37 -3.03345 -60.04546 271 ft 3 kts 284°
2026-04-21 20:38 -3.03346 -60.04535 271 ft 0 kts 264°
2026-04-21 20:40 -3.03347 -60.04543 271 ft 3 kts 264°
2026-04-21 20:40 -3.03349 -60.04567 271 ft 3 kts 264°
2026-04-21 20:40 -3.03350 -60.04574 271 ft 0 kts 264°
2026-04-21 20:41 -3.03351 -60.04582 271 ft 4 kts 264°
2026-04-21 20:41 -3.03356 -60.04630 271 ft 9 kts 264°
2026-04-21 20:41 -3.03366 -60.04703 274 ft 11 kts 257°
2026-04-21 20:42 -3.03393 -60.04781 273 ft 13 kts 243°
2026-04-21 20:42 -3.03445 -60.04852 272 ft 13 kts 226°
2026-04-21 20:42 -3.03510 -60.04908 272 ft 12 kts 219°
2026-04-21 20:42 -3.03564 -60.04970 272 ft 12 kts 240°
2026-04-21 20:43 -3.03592 -60.05044 270 ft 11 kts 255°
2026-04-21 20:43 -3.03609 -60.05117 270 ft 11 kts 253°
2026-04-21 20:43 -3.03633 -60.05194 272 ft 12 kts 252°
2026-04-21 20:43 -3.03662 -60.05284 270 ft 15 kts 252°
2026-04-21 20:44 -3.03688 -60.05394 270 ft 18 kts 270°
2026-04-21 20:44 -3.03691 -60.05517 270 ft 18 kts 271°
2026-04-21 20:44 -3.03691 -60.05634 270 ft 15 kts 269°
2026-04-21 20:44 -3.03691 -60.05734 270 ft 14 kts 270°
2026-04-21 20:45 -3.03691 -60.05826 272 ft 13 kts 270°
2026-04-21 20:45 -3.03690 -60.05916 270 ft 14 kts 270°
2026-04-21 20:45 -3.03690 -60.06012 270 ft 13 kts 270°
2026-04-21 20:45 -3.03695 -60.06103 274 ft 13 kts 257°
2026-04-21 20:46 -3.03746 -60.06167 270 ft 11 kts 206°
2026-04-21 20:46 -3.03818 -60.06172 270 ft 10 kts 164°
2026-04-21 20:46 -3.03854 -60.06132 275 ft 7 kts 104°
2026-04-21 20:46 -3.03856 -60.06052 272 ft 30 kts 90°
2026-04-21 20:47 -3.03857 -60.05548 270 ft 113 kts 90°
2026-04-21 20:47 -3.03857 -60.04532 379 ft 170 kts 91°
2026-04-21 20:47 -3.03864 -60.03317 1249 ft 177 kts 91°
2026-04-21 20:47 -3.03901 -60.02067 2207 ft 181 kts 96°
2026-04-21 20:48 -3.04350 -60.00857 2796 ft 203 kts 132°
2026-04-21 20:48 -3.05542 -59.99948 3050 ft 229 kts 146°
2026-04-21 20:48 -3.06927 -59.99045 3443 ft 243 kts 146°
2026-04-21 20:48 -3.08360 -59.98113 4059 ft 247 kts 146°
2026-04-21 20:49 -3.09790 -59.97174 4704 ft 250 kts 146°
2026-04-21 20:49 -3.11277 -59.96188 5155 ft 265 kts 146°
2026-04-21 20:49 -3.12847 -59.95139 5746 ft 276 kts 146°
2026-04-21 20:49 -3.14446 -59.94064 6638 ft 277 kts 146°
2026-04-21 20:50 -3.16056 -59.92978 7528 ft 280 kts 146°
2026-04-21 20:50 -3.17678 -59.91882 8364 ft 283 kts 146°
2026-04-21 20:50 -3.19324 -59.90766 9142 ft 287 kts 146°
2026-04-21 20:50 -3.20986 -59.89638 9908 ft 290 kts 146°
2026-04-21 20:51 -3.22698 -59.88473 10354 ft 308 kts 146°
2026-04-21 20:51 -3.24543 -59.87218 10533 ft 331 kts 146°
2026-04-21 20:51 -3.26514 -59.85877 10698 ft 353 kts 146°
2026-04-21 20:51 -3.28598 -59.84458 10854 ft 373 kts 146°
2026-04-21 20:52 -3.30791 -59.82964 11002 ft 389 kts 146°
2026-04-21 20:52 -3.33063 -59.81417 11378 ft 398 kts 146°
2026-04-21 20:52 -3.35359 -59.79854 11927 ft 400 kts 146°
2026-04-21 20:52 -3.37667 -59.78281 12460 ft 403 kts 146°
2026-04-21 20:53 -3.39991 -59.76698 13010 ft 405 kts 146°
2026-04-21 20:53 -3.42304 -59.75122 13539 ft 408 kts 145°
2026-04-21 20:53 -3.44655 -59.73520 14058 ft 410 kts 145°
2026-04-21 20:53 -3.47020 -59.71909 14555 ft 412 kts 145°
2026-04-21 20:54 -3.49397 -59.70289 15036 ft 415 kts 145°
2026-04-21 20:54 -3.51791 -59.68658 15480 ft 417 kts 145°
2026-04-21 20:54 -3.54227 -59.67047 15926 ft 420 kts 148°
2026-04-21 20:54 -3.56766 -59.65589 16381 ft 422 kts 150°
2026-04-21 20:55 -3.59366 -59.64206 16784 ft 424 kts 152°
2026-04-21 20:55 -3.61996 -59.62840 17171 ft 427 kts 152°
2026-04-21 20:55 -3.64637 -59.61465 17569 ft 429 kts 151°
2026-04-21 20:55 -3.67288 -59.60071 17958 ft 431 kts 151°
2026-04-21 20:56 -3.69046 -59.59139 18213 ft 432 kts 151°
2026-04-21 20:56 -3.71709 -59.57715 18538 ft 435 kts 151°
2026-04-21 20:56 -3.74391 -59.56275 18844 ft 438 kts 150°
2026-04-21 20:56 -3.77082 -59.54825 19146 ft 441 kts 150°
2026-04-21 20:57 -3.80678 -59.52883 19565 ft 444 kts 150°
2026-04-21 20:57 -3.82513 -59.51891 19775 ft 446 kts 150°
2026-04-21 20:57 -3.85257 -59.50411 20041 ft 448 kts 150°
2026-04-21 20:57 -3.88016 -59.48924 20319 ft 450 kts 150°
2026-04-21 20:58 -3.90747 -59.47451 20589 ft 453 kts 150°
2026-04-21 20:58 -3.93533 -59.45949 20847 ft 455 kts 150°
2026-04-21 20:58 -3.96322 -59.44444 21100 ft 457 kts 150°
2026-04-21 20:58 -3.99126 -59.42932 21347 ft 459 kts 150°
2026-04-21 20:59 -4.01952 -59.41408 21595 ft 461 kts 150°
2026-04-21 20:59 -4.04784 -59.39881 21842 ft 462 kts 150°
2026-04-21 20:59 -4.07619 -59.38350 22026 ft 465 kts 150°
2026-04-21 20:59 -4.10479 -59.36807 22228 ft 467 kts 150°
2026-04-21 21:00 -4.13340 -59.35263 22450 ft 468 kts 150°
2026-04-21 21:00 -4.16180 -59.33730 22661 ft 470 kts 150°
2026-04-21 21:00 -4.19097 -59.32156 22900 ft 470 kts 150°
2026-04-21 21:00 -4.21941 -59.30622 23111 ft 471 kts 150°
2026-04-21 21:01 -4.24842 -59.29060 23283 ft 473 kts 150°
2026-04-21 21:01 -4.27750 -59.27494 23449 ft 475 kts 150°
2026-04-21 21:01 -4.30665 -59.25923 23628 ft 477 kts 150°
2026-04-21 21:01 -4.33588 -59.24348 23816 ft 478 kts 150°
2026-04-21 21:02 -4.36521 -59.22766 23989 ft 479 kts 150°
2026-04-21 21:02 -4.39459 -59.21181 24159 ft 480 kts 150°
2026-04-21 21:02 -4.42405 -59.19591 24339 ft 481 kts 150°
2026-04-21 21:02 -4.45364 -59.17995 24623 ft 483 kts 150°
2026-04-21 21:03 -4.48328 -59.16396 24957 ft 484 kts 150°
2026-04-21 21:03 -4.51295 -59.14796 25257 ft 485 kts 150°
2026-04-21 21:03 -4.54276 -59.13187 25527 ft 486 kts 150°
2026-04-21 21:03 -4.57258 -59.11578 25795 ft 487 kts 150°
2026-04-21 21:04 -4.60249 -59.09964 26040 ft 489 kts 150°
2026-04-21 21:04 -4.63247 -59.08347 26268 ft 490 kts 150°
2026-04-21 21:04 -4.66249 -59.06726 26556 ft 490 kts 150°
2026-04-21 21:04 -4.69242 -59.05111 26934 ft 487 kts 150°
2026-04-21 21:05 -4.72178 -59.03526 27323 ft 484 kts 150°
2026-04-21 21:05 -4.75177 -59.01907 27672 ft 483 kts 150°
2026-04-21 21:05 -4.78090 -59.00335 27998 ft 481 kts 150°
2026-04-21 21:05 -4.81043 -58.98740 28296 ft 481 kts 150°
2026-04-21 21:06 -4.83984 -58.97152 28602 ft 479 kts 150°
2026-04-21 21:06 -4.86917 -58.95569 28932 ft 478 kts 150°
2026-04-21 21:06 -4.89838 -58.93992 29249 ft 476 kts 150°
2026-04-21 21:06 -4.92750 -58.92418 29540 ft 475 kts 150°
2026-04-21 21:07 -4.95657 -58.90845 29799 ft 475 kts 150°
2026-04-21 21:07 -4.98571 -58.89269 30085 ft 474 kts 150°
2026-04-21 21:07 -5.01464 -58.87706 30401 ft 472 kts 150°
2026-04-21 21:07 -5.04358 -58.86142 30656 ft 471 kts 150°
2026-04-21 21:08 -5.07248 -58.84581 30886 ft 472 kts 150°
2026-04-21 21:08 -5.10132 -58.83024 31134 ft 471 kts 149°
2026-04-21 21:08 -5.13020 -58.81463 31374 ft 471 kts 149°
2026-04-21 21:08 -5.15901 -58.79905 31593 ft 471 kts 149°
2026-04-21 21:09 -5.18791 -58.78342 31818 ft 470 kts 149°
2026-04-21 21:09 -5.21668 -58.76785 32057 ft 470 kts 149°
2026-04-21 21:09 -5.24543 -58.75229 32271 ft 469 kts 149°
2026-04-21 21:09 -5.27421 -58.73671 32491 ft 469 kts 149°
2026-04-21 21:10 -5.30294 -58.72116 32702 ft 469 kts 149°
2026-04-21 21:10 -5.33161 -58.70565 32908 ft 468 kts 149°
2026-04-21 21:10 -5.35984 -58.69037 33103 ft 468 kts 149°
2026-04-21 21:10 -5.38857 -58.67482 33317 ft 468 kts 149°
2026-04-21 21:11 -5.41719 -58.65933 33508 ft 468 kts 149°
2026-04-21 21:11 -5.44580 -58.64384 33695 ft 467 kts 149°
2026-04-21 21:11 -5.47437 -58.62837 33853 ft 468 kts 149°
2026-04-21 21:11 -5.50322 -58.61276 34026 ft 467 kts 149°
2026-04-21 21:12 -5.53197 -58.59720 34212 ft 467 kts 149°
2026-04-21 21:12 -5.56026 -58.58188 34403 ft 466 kts 149°
2026-04-21 21:12 -5.58880 -58.56643 34591 ft 465 kts 149°
2026-04-21 21:12 -5.61730 -58.55099 34720 ft 466 kts 149°
2026-04-21 21:13 -5.64582 -58.53555 34884 ft 465 kts 149°
2026-04-21 21:13 -5.67436 -58.52010 35076 ft 464 kts 149°
2026-04-21 21:13 -5.70281 -58.50467 35272 ft 464 kts 149°
2026-04-21 21:13 -5.73085 -58.48948 35428 ft 463 kts 149°
2026-04-21 21:14 -5.75917 -58.47416 35563 ft 463 kts 149°
2026-04-21 21:14 -5.78749 -58.45881 35702 ft 463 kts 149°
2026-04-21 21:14 -5.81593 -58.44339 35878 ft 462 kts 149°
2026-04-21 21:14 -5.84419 -58.42806 36051 ft 461 kts 149°
2026-04-21 21:15 -5.87244 -58.41273 36177 ft 461 kts 149°
2026-04-21 21:15 -5.90070 -58.39743 36298 ft 462 kts 149°
2026-04-21 21:15 -5.92897 -58.38209 36447 ft 462 kts 149°
2026-04-21 21:15 -5.95761 -58.36654 36596 ft 461 kts 149°
2026-04-21 21:16 -5.98586 -58.35122 36798 ft 458 kts 149°
2026-04-21 21:16 -6.01346 -58.33625 36851 ft 458 kts 149°
2026-04-21 21:16 -6.06918 -58.30603 36852 ft 451 kts 149°
2026-04-21 21:17 -6.12420 -58.27618 36854 ft 447 kts 149°
2026-04-21 21:17 -6.17844 -58.24670 36860 ft 444 kts 149°
2026-04-21 21:18 -6.23281 -58.21717 36869 ft 446 kts 149°
2026-04-21 21:18 -6.28788 -58.18724 36870 ft 453 kts 149°
2026-04-21 21:19 -6.34369 -58.15692 36869 ft 458 kts 149°
2026-04-21 21:19 -6.39999 -58.12633 36868 ft 460 kts 149°
2026-04-21 21:20 -6.45636 -58.09573 36857 ft 461 kts 149°
2026-04-21 21:20 -6.51278 -58.06504 36861 ft 461 kts 149°
2026-04-21 21:21 -6.56914 -58.03437 36862 ft 460 kts 149°
2026-04-21 21:21 -6.62550 -58.00372 36856 ft 459 kts 149°
2026-04-21 21:22 -6.68168 -57.97319 36860 ft 457 kts 149°
2026-04-21 21:22 -6.73757 -57.94276 36862 ft 456 kts 149°
2026-04-21 21:23 -6.79328 -57.91240 36860 ft 454 kts 149°
2026-04-21 21:23 -6.84845 -57.88235 36874 ft 453 kts 149°
2026-04-21 21:24 -6.90393 -57.85214 36880 ft 453 kts 149°
2026-04-21 21:24 -6.95923 -57.82204 36883 ft 452 kts 149°
2026-04-21 21:25 -7.01463 -57.79183 36889 ft 452 kts 149°
2026-04-21 21:25 -7.07012 -57.76159 36879 ft 452 kts 149°
2026-04-21 21:26 -7.12547 -57.73140 36880 ft 452 kts 149°
2026-04-21 21:26 -7.18045 -57.70140 36878 ft 452 kts 149°
2026-04-21 21:27 -7.23572 -57.67127 36883 ft 452 kts 149°
2026-04-21 21:27 -7.29092 -57.64115 36882 ft 452 kts 149°
2026-04-21 21:28 -7.34639 -57.61083 36879 ft 452 kts 149°
2026-04-21 21:29 -7.42948 -57.56550 36882 ft 452 kts 149°
2026-04-21 21:29 -7.48483 -57.53528 36879 ft 453 kts 149°
2026-04-21 21:30 -7.54021 -57.50501 36879 ft 452 kts 149°
2026-04-21 21:30 -7.59555 -57.47475 36879 ft 452 kts 149°
2026-04-21 21:31 -7.65086 -57.44453 36881 ft 452 kts 150°
2026-04-21 21:31 -7.70604 -57.41436 36876 ft 451 kts 149°
2026-04-21 21:32 -7.76135 -57.38408 36882 ft 452 kts 149°
2026-04-21 21:32 -7.81657 -57.35385 36884 ft 451 kts 149°
2026-04-21 21:33 -7.87146 -57.32381 36886 ft 452 kts 150°
2026-04-21 21:33 -7.92664 -57.29361 36889 ft 452 kts 149°
2026-04-21 21:34 -7.98202 -57.26326 36887 ft 452 kts 149°
2026-04-21 21:34 -8.03724 -57.23298 36887 ft 452 kts 150°
2026-04-21 21:35 -8.09246 -57.20271 36888 ft 451 kts 150°
2026-04-21 21:35 -8.14764 -57.17247 36889 ft 451 kts 150°
2026-04-21 21:36 -8.20263 -57.14233 36889 ft 451 kts 150°
2026-04-21 21:36 -8.25780 -57.11206 36893 ft 451 kts 150°
2026-04-21 21:37 -8.31282 -57.08186 36890 ft 451 kts 150°
2026-04-21 21:37 -8.36815 -57.05149 36891 ft 451 kts 150°
2026-04-21 21:38 -8.42330 -57.02119 36888 ft 451 kts 150°
2026-04-21 21:38 -8.47804 -56.99112 36888 ft 451 kts 150°
2026-04-21 21:39 -8.53322 -56.96082 36887 ft 451 kts 150°
2026-04-21 21:39 -8.58829 -56.93054 36884 ft 450 kts 150°
2026-04-21 21:40 -8.63406 -56.90538 36891 ft 450 kts 150°
2026-04-21 21:40 -8.68916 -56.87509 36886 ft 451 kts 150°
2026-04-21 21:41 -8.74419 -56.84481 36887 ft 450 kts 150°
2026-04-21 21:41 -8.79925 -56.81451 36892 ft 450 kts 150°
2026-04-21 21:42 -8.85439 -56.78414 36887 ft 450 kts 150°
2026-04-21 21:42 -8.90936 -56.75386 36892 ft 450 kts 150°
2026-04-21 21:43 -8.96443 -56.72352 36886 ft 450 kts 150°
2026-04-21 21:43 -9.01943 -56.69322 36887 ft 451 kts 150°
2026-04-21 21:44 -9.07412 -56.66307 36885 ft 451 kts 150°
2026-04-21 21:44 -9.12916 -56.63272 36889 ft 451 kts 150°
2026-04-21 21:45 -9.18430 -56.60230 36889 ft 451 kts 150°
2026-04-21 21:45 -9.23929 -56.57192 36889 ft 451 kts 150°
2026-04-21 21:46 -9.29441 -56.54149 36885 ft 451 kts 150°
2026-04-21 21:46 -9.34955 -56.51105 36886 ft 451 kts 150°
2026-04-21 21:47 -9.40464 -56.48060 36890 ft 451 kts 150°
2026-04-21 21:47 -9.45978 -56.45013 36891 ft 451 kts 150°
2026-04-21 21:48 -9.51457 -56.41983 36887 ft 451 kts 150°
2026-04-21 21:48 -9.56971 -56.38933 36887 ft 451 kts 150°
2026-04-21 21:49 -9.62479 -56.35884 36889 ft 451 kts 150°
2026-04-21 21:49 -9.67993 -56.32832 36889 ft 451 kts 151°
2026-04-21 21:50 -9.73506 -56.29780 36890 ft 452 kts 151°
2026-04-21 21:50 -9.79026 -56.26721 36887 ft 452 kts 151°
2026-04-21 21:51 -9.84538 -56.23666 36893 ft 451 kts 151°
2026-04-21 21:51 -9.90012 -56.20630 36886 ft 451 kts 151°
2026-04-21 21:52 -9.95525 -56.17572 36889 ft 451 kts 151°
2026-04-21 21:52 -10.01048 -56.14510 36888 ft 452 kts 151°
2026-04-21 21:53 -10.06558 -56.11450 36890 ft 452 kts 151°
2026-04-21 21:53 -10.12071 -56.08387 36886 ft 451 kts 151°
2026-04-21 21:54 -10.17583 -56.05322 36890 ft 452 kts 151°
2026-04-21 21:54 -10.23058 -56.02280 36890 ft 452 kts 151°
2026-04-21 21:55 -10.28572 -55.99214 36889 ft 452 kts 151°
2026-04-21 21:55 -10.34084 -55.96144 36891 ft 452 kts 151°
2026-04-21 21:56 -10.39595 -55.93078 36886 ft 451 kts 151°
2026-04-21 21:56 -10.45100 -55.90013 36890 ft 451 kts 151°
2026-04-21 21:57 -10.50603 -55.86948 36893 ft 451 kts 151°
2026-04-21 21:57 -10.56098 -55.83888 36885 ft 451 kts 151°
2026-04-21 21:58 -10.61574 -55.80837 36887 ft 451 kts 151°
2026-04-21 21:58 -10.67074 -55.77769 36886 ft 451 kts 151°
2026-04-21 21:59 -10.72574 -55.74698 36898 ft 450 kts 151°
2026-04-21 21:59 -10.78071 -55.71632 36896 ft 451 kts 151°
2026-04-21 22:00 -10.83569 -55.68561 36898 ft 450 kts 151°
2026-04-21 22:00 -10.89069 -55.65489 36892 ft 451 kts 151°
2026-04-21 22:01 -10.94543 -55.62431 36905 ft 451 kts 151°
2026-04-21 22:01 -11.00044 -55.59355 36897 ft 450 kts 152°
2026-04-21 22:02 -11.05532 -55.56285 36896 ft 450 kts 152°
2026-04-21 22:02 -11.11012 -55.53218 36898 ft 450 kts 152°
2026-04-21 22:03 -11.16504 -55.50141 36889 ft 450 kts 152°
2026-04-21 22:03 -11.21989 -55.47069 36897 ft 450 kts 152°
2026-04-21 22:04 -11.27484 -55.44100 36900 ft 450 kts 155°
2026-04-21 22:04 -11.33158 -55.41419 36897 ft 449 kts 156°
2026-04-21 22:05 -11.38846 -55.38773 36899 ft 449 kts 156°
2026-04-21 22:05 -11.44527 -55.36100 36900 ft 449 kts 155°
2026-04-21 22:06 -11.50199 -55.33414 36892 ft 450 kts 155°
2026-04-21 22:06 -11.55879 -55.30723 36896 ft 450 kts 155°
2026-04-21 22:07 -11.61565 -55.28025 36901 ft 450 kts 155°
2026-04-21 22:07 -11.67246 -55.25329 36898 ft 450 kts 155°
2026-04-21 22:08 -11.72895 -55.22648 36895 ft 450 kts 155°
2026-04-21 22:08 -11.78499 -55.19783 36892 ft 450 kts 152°
2026-04-21 22:09 -11.83961 -55.16639 36901 ft 450 kts 151°
2026-04-21 22:09 -11.89403 -55.13480 36901 ft 450 kts 151°
2026-04-21 22:10 -11.94859 -55.10349 36909 ft 449 kts 151°
2026-04-21 22:10 -12.00283 -55.07255 36901 ft 449 kts 152°
2026-04-21 22:11 -12.05738 -55.04144 36910 ft 448 kts 152°
2026-04-21 22:11 -12.11189 -55.01034 36911 ft 448 kts 152°
2026-04-21 22:12 -12.16634 -54.97926 36909 ft 448 kts 152°
2026-04-21 22:12 -12.22076 -54.94817 36904 ft 448 kts 152°
2026-04-21 22:13 -12.27517 -54.91707 36903 ft 447 kts 151°
2026-04-21 22:13 -12.32912 -54.88620 36905 ft 447 kts 151°
2026-04-21 22:14 -12.38342 -54.85512 36910 ft 447 kts 151°
2026-04-21 22:14 -12.43771 -54.82405 36904 ft 447 kts 151°
2026-04-21 22:15 -12.49203 -54.79322 36911 ft 446 kts 152°
2026-04-21 22:15 -12.54644 -54.76288 36901 ft 445 kts 152°
2026-04-21 22:16 -12.60075 -54.73250 36908 ft 445 kts 152°
2026-04-21 22:16 -12.65467 -54.70220 36922 ft 444 kts 152°
2026-04-21 22:17 -12.70884 -54.67159 36918 ft 444 kts 152°
2026-04-21 22:17 -12.76292 -54.64100 36912 ft 444 kts 152°
2026-04-21 22:18 -12.81702 -54.61041 36924 ft 444 kts 152°
2026-04-21 22:18 -12.87109 -54.57983 36923 ft 444 kts 152°
2026-04-21 22:19 -12.92526 -54.54926 36906 ft 443 kts 152°
2026-04-21 22:19 -12.97942 -54.51876 36928 ft 444 kts 152°
2026-04-21 22:20 -13.03322 -54.48840 36914 ft 444 kts 152°
2026-04-21 22:20 -13.08737 -54.45782 36917 ft 444 kts 152°
2026-04-21 22:21 -13.14159 -54.42716 36920 ft 444 kts 152°
2026-04-21 22:21 -13.19577 -54.39654 36911 ft 444 kts 152°
2026-04-21 22:22 -13.24987 -54.36591 36916 ft 443 kts 152°
2026-04-21 22:22 -13.30397 -54.33531 36910 ft 443 kts 152°
2026-04-21 22:23 -13.35792 -54.30479 36910 ft 443 kts 152°
2026-04-21 22:23 -13.41214 -54.27407 36914 ft 444 kts 152°
2026-04-21 22:24 -13.46581 -54.24367 36908 ft 443 kts 152°
2026-04-21 22:24 -13.51981 -54.21303 36922 ft 443 kts 152°
2026-04-21 22:25 -13.57375 -54.18243 36915 ft 442 kts 152°
2026-04-21 22:25 -13.62768 -54.15183 36919 ft 443 kts 152°
2026-04-21 22:26 -13.68161 -54.12120 36907 ft 442 kts 152°
2026-04-21 22:26 -13.73547 -54.09057 36935 ft 442 kts 152°
2026-04-21 22:27 -13.78928 -54.06001 36928 ft 442 kts 152°
2026-04-21 22:27 -13.83406 -54.03454 36925 ft 442 kts 152°
2026-04-21 22:28 -13.89666 -53.99889 36914 ft 442 kts 152°
2026-04-21 22:28 -13.94176 -53.97320 36934 ft 441 kts 151°
2026-04-21 22:29 -13.99515 -53.94278 36909 ft 440 kts 152°
2026-04-21 22:29 -14.04884 -53.91219 36932 ft 440 kts 152°
2026-04-21 22:30 -14.10253 -53.88156 36933 ft 440 kts 152°
2026-04-21 22:30 -14.15580 -53.85120 36931 ft 440 kts 152°
2026-04-21 22:31 -14.20943 -53.82057 36927 ft 441 kts 151°
2026-04-21 22:31 -14.26306 -53.78990 36932 ft 441 kts 151°
2026-04-21 22:32 -14.31674 -53.75922 36929 ft 441 kts 151°
2026-04-21 22:32 -14.37055 -53.72845 36932 ft 442 kts 151°
2026-04-21 22:33 -14.42457 -53.69805 36928 ft 442 kts 153°
2026-04-21 22:33 -14.47969 -53.66992 36913 ft 442 kts 154°
2026-04-21 22:34 -14.53488 -53.64166 36933 ft 443 kts 154°
2026-04-21 22:34 -14.58921 -53.61225 36927 ft 443 kts 151°
2026-04-21 22:35 -14.64263 -53.58036 36930 ft 444 kts 150°
2026-04-21 22:35 -14.69611 -53.54815 36925 ft 444 kts 150°
2026-04-21 22:36 -14.77646 -53.50023 36939 ft 444 kts 150°
2026-04-21 22:36 -14.82988 -53.46848 36932 ft 445 kts 150°
2026-04-21 22:37 -14.88356 -53.43655 36938 ft 446 kts 150°
2026-04-21 22:37 -14.93745 -53.40442 36935 ft 446 kts 150°
2026-04-21 22:38 -14.99127 -53.37237 36935 ft 446 kts 150°
2026-04-21 22:38 -15.04526 -53.34056 36935 ft 447 kts 151°
2026-04-21 22:39 -15.09932 -53.30956 36936 ft 447 kts 151°
2026-04-21 22:39 -15.15365 -53.27843 36934 ft 447 kts 151°
2026-04-21 22:40 -15.20816 -53.24705 36941 ft 447 kts 151°
2026-04-21 22:40 -15.26257 -53.21564 36931 ft 448 kts 151°
2026-04-21 22:41 -15.31696 -53.18423 36934 ft 447 kts 151°
2026-04-21 22:41 -15.37106 -53.15300 36935 ft 447 kts 151°
2026-04-21 22:42 -15.42544 -53.12158 36940 ft 447 kts 151°
2026-04-21 22:42 -15.47980 -53.09014 36931 ft 447 kts 151°
2026-04-21 22:43 -15.53421 -53.05865 36940 ft 447 kts 151°
2026-04-21 22:43 -15.58850 -53.02719 36930 ft 447 kts 151°
2026-04-21 22:44 -15.64288 -52.99566 36934 ft 448 kts 151°
2026-04-21 22:44 -15.69726 -52.96411 36936 ft 448 kts 151°
2026-04-21 22:45 -15.75163 -52.93253 36943 ft 448 kts 151°
2026-04-21 22:45 -15.80604 -52.90093 36947 ft 448 kts 151°
2026-04-21 22:46 -15.86011 -52.86950 36945 ft 448 kts 151°
2026-04-21 22:46 -15.91465 -52.83779 36944 ft 448 kts 150°
2026-04-21 22:47 -15.96907 -52.80608 36949 ft 448 kts 150°
2026-04-21 22:47 -16.02359 -52.77436 36942 ft 449 kts 151°
2026-04-21 22:48 -16.07810 -52.74258 36945 ft 449 kts 151°
2026-04-21 22:48 -16.13267 -52.71076 36944 ft 450 kts 151°
2026-04-21 22:49 -16.18729 -52.67892 36943 ft 450 kts 151°
2026-04-21 22:49 -16.24159 -52.64720 36946 ft 451 kts 150°
2026-04-21 22:50 -16.29635 -52.61518 36946 ft 451 kts 150°
2026-04-21 22:50 -16.35102 -52.58322 36941 ft 450 kts 150°
2026-04-21 22:51 -16.40558 -52.55129 36945 ft 450 kts 151°
2026-04-21 22:51 -16.46017 -52.51934 36944 ft 450 kts 151°
2026-04-21 22:52 -16.51479 -52.48732 36941 ft 450 kts 150°
2026-04-21 22:52 -16.56940 -52.45532 36947 ft 450 kts 150°
2026-04-21 22:53 -16.62392 -52.42332 36944 ft 449 kts 151°
2026-04-21 22:53 -16.67853 -52.39130 36944 ft 449 kts 151°
2026-04-21 22:54 -16.73305 -52.35939 36947 ft 449 kts 151°
2026-04-21 22:54 -16.78752 -52.32749 36955 ft 449 kts 151°
2026-04-21 22:55 -16.84171 -52.29571 36961 ft 448 kts 151°
2026-04-21 22:55 -16.89611 -52.26380 36969 ft 448 kts 151°
2026-04-21 22:56 -16.95042 -52.23190 36962 ft 448 kts 151°
2026-04-21 22:56 -17.00479 -52.19995 36963 ft 448 kts 151°
2026-04-21 22:57 -17.05921 -52.16796 36970 ft 447 kts 151°
2026-04-21 22:57 -17.11314 -52.13664 36975 ft 447 kts 152°
2026-04-21 22:58 -17.16804 -52.10495 36970 ft 447 kts 152°
2026-04-21 22:58 -17.22206 -52.07368 36980 ft 446 kts 152°
2026-04-21 22:59 -17.27642 -52.04218 36978 ft 447 kts 152°
2026-04-21 22:59 -17.33074 -52.01066 36982 ft 446 kts 152°
2026-04-21 23:00 -17.38500 -51.97914 36980 ft 445 kts 152°
2026-04-21 23:00 -17.43917 -51.94770 36987 ft 445 kts 152°
2026-04-21 23:01 -17.49328 -51.91620 36992 ft 445 kts 152°
2026-04-21 23:01 -17.54741 -51.88466 36989 ft 445 kts 152°
2026-04-21 23:02 -17.60148 -51.85316 36995 ft 444 kts 152°
2026-04-21 23:02 -17.65550 -51.82169 36998 ft 443 kts 152°
2026-04-21 23:03 -17.70943 -51.79024 37000 ft 443 kts 152°
2026-04-21 23:03 -17.76341 -51.75878 36999 ft 443 kts 152°
2026-04-21 23:04 -17.81731 -51.72728 37007 ft 443 kts 152°
2026-04-21 23:04 -17.87118 -51.69577 37010 ft 443 kts 152°
2026-04-21 23:05 -17.92471 -51.66447 37013 ft 443 kts 152°
2026-04-21 23:05 -17.97865 -51.63290 37012 ft 444 kts 152°
2026-04-21 23:06 -18.03253 -51.60133 37010 ft 443 kts 152°
2026-04-21 23:06 -18.08640 -51.56976 37014 ft 443 kts 152°
2026-04-21 23:07 -18.14016 -51.53822 37021 ft 443 kts 152°
2026-04-21 23:07 -18.19394 -51.50664 37018 ft 443 kts 152°
2026-04-21 23:08 -18.24750 -51.47519 37007 ft 444 kts 152°
2026-04-21 23:08 -18.30101 -51.44291 37019 ft 444 kts 151°
2026-04-21 23:09 -18.35426 -51.40983 37019 ft 444 kts 150°
2026-04-21 23:09 -18.40756 -51.37676 37018 ft 444 kts 151°
2026-04-21 23:10 -18.46076 -51.34388 37016 ft 444 kts 151°
2026-04-21 23:10 -18.51404 -51.31098 37021 ft 443 kts 151°
2026-04-21 23:11 -18.56724 -51.27801 37017 ft 444 kts 151°
2026-04-21 23:11 -18.62009 -51.24521 37020 ft 444 kts 151°
2026-04-21 23:12 -18.67347 -51.21208 37018 ft 444 kts 151°
2026-04-21 23:12 -18.72670 -51.17903 37018 ft 444 kts 151°
2026-04-21 23:13 -18.77994 -51.14594 37021 ft 444 kts 151°
2026-04-21 23:13 -18.83288 -51.11302 37031 ft 445 kts 151°
2026-04-21 23:14 -18.87724 -51.08541 37031 ft 445 kts 151°
2026-04-21 23:14 -18.93063 -51.05215 37033 ft 445 kts 151°
2026-04-21 23:15 -18.98392 -51.01891 37041 ft 444 kts 151°
2026-04-21 23:15 -19.03700 -50.98546 37044 ft 445 kts 150°
2026-04-21 23:16 -19.08963 -50.95092 37036 ft 445 kts 150°
2026-04-21 23:16 -19.14213 -50.91627 37032 ft 445 kts 150°
2026-04-21 23:17 -19.19468 -50.88171 37042 ft 444 kts 150°
2026-04-21 23:17 -19.24732 -50.84713 37038 ft 445 kts 150°
2026-04-21 23:18 -19.29986 -50.81263 37034 ft 445 kts 150°
2026-04-21 23:18 -19.35216 -50.77827 37041 ft 445 kts 150°
2026-04-21 23:19 -19.40473 -50.74370 37033 ft 445 kts 150°
2026-04-21 23:19 -19.45731 -50.70907 37042 ft 445 kts 150°
2026-04-21 23:20 -19.50988 -50.67442 37031 ft 445 kts 150°
2026-04-21 23:20 -19.56252 -50.63971 37038 ft 445 kts 150°
2026-04-21 23:21 -19.61515 -50.60498 37030 ft 446 kts 150°
2026-04-21 23:21 -19.66781 -50.57023 37037 ft 446 kts 150°
2026-04-21 23:22 -19.72077 -50.53599 37037 ft 446 kts 151°
2026-04-21 23:22 -19.77389 -50.50185 37033 ft 446 kts 151°
2026-04-21 23:23 -19.82663 -50.46785 37036 ft 446 kts 151°
2026-04-21 23:23 -19.87966 -50.43359 37035 ft 446 kts 151°
2026-04-21 23:24 -19.93275 -50.39923 37035 ft 445 kts 151°
2026-04-21 23:24 -19.98569 -50.36493 37038 ft 446 kts 151°
2026-04-21 23:25 -20.03878 -50.33052 37033 ft 446 kts 151°
2026-04-21 23:25 -20.09142 -50.29638 37029 ft 446 kts 151°
2026-04-21 23:26 -20.14482 -50.26260 37028 ft 445 kts 153°
2026-04-21 23:26 -20.19904 -50.23074 37028 ft 445 kts 154°
2026-04-21 23:27 -20.25338 -50.19900 37025 ft 445 kts 153°
2026-04-21 23:27 -20.30761 -50.16699 37028 ft 445 kts 153°
2026-04-21 23:28 -20.36171 -50.13491 37045 ft 445 kts 153°
2026-04-21 23:28 -20.41575 -50.10277 37051 ft 445 kts 153°
2026-04-21 23:29 -20.46977 -50.07059 37056 ft 445 kts 153°
2026-04-21 23:29 -20.52397 -50.03831 37055 ft 445 kts 153°
2026-04-21 23:30 -20.57769 -50.00628 37054 ft 445 kts 153°
2026-04-21 23:30 -20.63226 -49.97371 37056 ft 445 kts 153°
2026-04-21 23:31 -20.68597 -49.94165 37051 ft 445 kts 153°
2026-04-21 23:31 -20.74010 -49.90927 37058 ft 445 kts 154°
2026-04-21 23:32 -20.79423 -49.87689 37055 ft 446 kts 154°
2026-04-21 23:32 -20.84835 -49.84449 37054 ft 446 kts 154°
2026-04-21 23:33 -20.90255 -49.81201 37058 ft 446 kts 154°
2026-04-21 23:33 -20.95665 -49.77956 37056 ft 446 kts 154°
2026-04-21 23:34 -21.01086 -49.74704 37055 ft 446 kts 154°
2026-04-21 23:34 -21.06512 -49.71445 37056 ft 447 kts 154°
2026-04-21 23:35 -21.11932 -49.68189 37056 ft 447 kts 154°
2026-04-21 23:35 -21.17353 -49.64928 37056 ft 446 kts 154°
2026-04-21 23:36 -21.22765 -49.61666 37054 ft 446 kts 154°
2026-04-21 23:36 -21.28142 -49.58424 37053 ft 446 kts 154°
2026-04-21 23:37 -21.33560 -49.55157 37056 ft 446 kts 154°
2026-04-21 23:37 -21.38973 -49.51888 37058 ft 446 kts 154°
2026-04-21 23:38 -21.44392 -49.48614 37069 ft 446 kts 154°
2026-04-21 23:38 -21.49811 -49.45336 37064 ft 447 kts 154°
2026-04-21 23:39 -21.55224 -49.42061 37068 ft 447 kts 154°
2026-04-21 23:39 -21.60644 -49.38777 37062 ft 447 kts 154°
2026-04-21 23:40 -21.66062 -49.35491 37063 ft 447 kts 154°
2026-04-21 23:40 -21.71439 -49.32228 37065 ft 447 kts 154°
2026-04-21 23:41 -21.76850 -49.28942 37069 ft 447 kts 154°
2026-04-21 23:41 -21.82262 -49.25651 37076 ft 446 kts 154°
2026-04-21 23:42 -21.87676 -49.22357 37074 ft 447 kts 154°
2026-04-21 23:42 -21.93094 -49.19061 37073 ft 447 kts 154°
2026-04-21 23:43 -21.98471 -49.15778 37076 ft 447 kts 154°
2026-04-21 23:43 -22.03887 -49.12474 37071 ft 447 kts 155°
2026-04-21 23:44 -22.09234 -49.09015 37067 ft 451 kts 148°
2026-04-21 23:44 -22.13771 -49.04251 37083 ft 459 kts 136°
2026-04-21 23:45 -22.19998 -48.96435 37076 ft 460 kts 136°
2026-04-21 23:46 -22.24218 -48.91248 37073 ft 460 kts 136°
2026-04-21 23:46 -22.28483 -48.86036 37075 ft 460 kts 136°
2026-04-21 23:47 -22.32726 -48.80858 37073 ft 460 kts 136°
2026-04-21 23:47 -22.36922 -48.75704 37076 ft 460 kts 136°
2026-04-21 23:48 -22.41171 -48.70473 37075 ft 460 kts 136°
2026-04-21 23:48 -22.45370 -48.65298 37073 ft 460 kts 136°
2026-04-21 23:49 -22.49594 -48.60089 37071 ft 461 kts 136°
2026-04-21 23:49 -22.53823 -48.54873 37073 ft 461 kts 136°
2026-04-21 23:50 -22.58036 -48.49669 37082 ft 460 kts 136°
2026-04-21 23:50 -22.61685 -48.43873 37084 ft 471 kts 120°
2026-04-21 23:51 -22.63952 -48.37157 37080 ft 475 kts 113°
2026-04-21 23:51 -22.65969 -48.30446 37081 ft 469 kts 113°
2026-04-21 23:52 -22.68048 -48.23739 36685 ft 473 kts 114°
2026-04-21 23:52 -22.69108 -48.20379 36094 ft 470 kts 113°
2026-04-21 23:52 -22.70172 -48.17019 35372 ft 471 kts 113°
2026-04-21 23:52 -22.71232 -48.13670 34629 ft 473 kts 112°
2026-04-21 23:53 -22.72301 -48.10284 33857 ft 475 kts 112°
2026-04-21 23:53 -22.73364 -48.06909 33081 ft 476 kts 111°
2026-04-21 23:53 -22.74438 -48.03438 32203 ft 480 kts 110°
2026-04-21 23:53 -22.75413 -47.99958 31275 ft 485 kts 109°
2026-04-21 23:54 -22.76363 -47.96482 30387 ft 487 kts 110°
2026-04-21 23:54 -22.77632 -47.93078 29408 ft 488 kts 119°
2026-04-21 23:54 -22.79243 -47.89840 28392 ft 489 kts 121°
2026-04-21 23:54 -22.80893 -47.86602 27296 ft 493 kts 120°
2026-04-21 23:55 -22.82494 -47.83354 27057 ft 478 kts 120°
2026-04-21 23:55 -22.84015 -47.80212 26726 ft 465 kts 119°
2026-04-21 23:55 -22.85522 -47.77081 26491 ft 474 kts 119°
2026-04-21 23:55 -22.87069 -47.73865 26228 ft 485 kts 119°
2026-04-21 23:56 -22.88643 -47.70593 25956 ft 494 kts 119°
2026-04-21 23:56 -22.90238 -47.67275 25672 ft 497 kts 119°
2026-04-21 23:56 -22.91818 -47.63984 25387 ft 491 kts 119°
2026-04-21 23:56 -22.93401 -47.60688 25110 ft 487 kts 119°
2026-04-21 23:57 -22.94960 -47.57441 24836 ft 483 kts 119°
2026-04-21 23:57 -22.96507 -47.54216 24564 ft 480 kts 119°
2026-04-21 23:57 -22.97524 -47.52098 24399 ft 479 kts 119°
2026-04-21 23:57 -22.99560 -47.47854 23991 ft 478 kts 119°
2026-04-21 23:58 -23.01106 -47.44631 23234 ft 484 kts 119°
2026-04-21 23:58 -23.02655 -47.41397 22518 ft 479 kts 119°
2026-04-21 23:58 -23.04177 -47.38215 21811 ft 470 kts 119°
2026-04-21 23:58 -23.05673 -47.35086 21115 ft 463 kts 119°
2026-04-21 23:59 -23.06651 -47.33040 20660 ft 458 kts 119°
2026-04-21 23:59 -23.08599 -47.28966 19752 ft 451 kts 119°
2026-04-21 23:59 -23.09556 -47.26963 19305 ft 447 kts 119°
2026-04-21 23:59 -23.10980 -47.23981 18641 ft 442 kts 119°
2026-04-22 00:00 -23.12387 -47.21033 17980 ft 437 kts 119°
2026-04-22 00:00 -23.13782 -47.18111 17330 ft 433 kts 118°
2026-04-22 00:00 -23.15230 -47.15267 16687 ft 428 kts 123°
2026-04-22 00:00 -23.16817 -47.12603 16064 ft 423 kts 125°
2026-04-22 00:01 -23.18467 -47.09959 15434 ft 420 kts 126°
2026-04-22 00:01 -23.20109 -47.07356 14812 ft 416 kts 126°
2026-04-22 00:01 -23.21713 -47.04800 14201 ft 411 kts 125°
2026-04-22 00:01 -23.23300 -47.02245 13590 ft 404 kts 125°
2026-04-22 00:02 -23.24853 -46.99726 12990 ft 396 kts 125°
2026-04-22 00:02 -23.26367 -46.97258 12403 ft 388 kts 125°
2026-04-22 00:02 -23.27823 -46.94877 11844 ft 369 kts 124°
2026-04-22 00:02 -23.29210 -46.92606 11301 ft 353 kts 124°
2026-04-22 00:03 -23.30541 -46.90426 10793 ft 339 kts 124°
2026-04-22 00:03 -23.31638 -46.88630 10373 ft 330 kts 124°
2026-04-22 00:03 -23.32900 -46.86563 10029 ft 314 kts 124°
2026-04-22 00:03 -23.34062 -46.84660 10030 ft 290 kts 124°
2026-04-22 00:04 -23.35153 -46.82871 9744 ft 279 kts 124°
2026-04-22 00:04 -23.36229 -46.81108 9193 ft 280 kts 124°
2026-04-22 00:04 -23.37293 -46.79365 8659 ft 280 kts 124°
2026-04-22 00:04 -23.38366 -46.77603 8173 ft 278 kts 124°
2026-04-22 00:05 -23.39428 -46.75858 7715 ft 275 kts 124°
2026-04-22 00:05 -23.40481 -46.74131 7264 ft 273 kts 124°
2026-04-22 00:05 -23.41511 -46.72439 7011 ft 262 kts 124°
2026-04-22 00:05 -23.42503 -46.70807 6756 ft 254 kts 124°
2026-04-22 00:06 -23.43471 -46.69244 6539 ft 244 kts 124°
2026-04-22 00:06 -23.44413 -46.67744 6328 ft 235 kts 124°
2026-04-22 00:06 -23.45325 -46.66296 6129 ft 228 kts 125°
2026-04-22 00:06 -23.46209 -46.64891 5987 ft 223 kts 124°
2026-04-22 00:07 -23.46923 -46.63414 5734 ft 222 kts 100°
2026-04-22 00:07 -23.46838 -46.61750 5522 ft 221 kts 80°
2026-04-22 00:07 -23.46554 -46.60102 5068 ft 225 kts 78°
2026-04-22 00:07 -23.46163 -46.58465 4567 ft 221 kts 75°
2026-04-22 00:08 -23.45727 -46.56868 4094 ft 212 kts 75°
2026-04-22 00:08 -23.45321 -46.55376 3807 ft 198 kts 75°
2026-04-22 00:08 -23.44954 -46.54011 3545 ft 182 kts 74°
2026-04-22 00:08 -23.44618 -46.52763 3340 ft 162 kts 74°
2026-04-22 00:09 -23.44315 -46.51634 3112 ft 151 kts 74°
2026-04-22 00:09 -23.44023 -46.50548 2916 ft 149 kts 74°
2026-04-22 00:09 -23.43732 -46.49466 2724 ft 149 kts 74°
2026-04-22 00:09 -23.43440 -46.48381 2518 ft 150 kts 74°
2026-04-22 00:10 -23.43154 -46.47314 2461 ft 130 kts 73°
2026-04-22 00:10 -23.42943 -46.46535 2470 ft 87 kts 73°
2026-04-22 00:10 -23.42810 -46.46060 2461 ft 44 kts 65°
2026-04-22 00:10 -23.42679 -46.46008 2462 ft 17 kts 327°
2026-04-22 00:11 -23.42655 -46.46111 2462 ft 14 kts 259°
2026-04-22 00:11 -23.42683 -46.46215 2462 ft 14 kts 253°
2026-04-22 00:11 -23.42711 -46.46318 2462 ft 15 kts 253°
2026-04-22 00:11 -23.42742 -46.46434 2464 ft 16 kts 253°
2026-04-22 00:12 -23.42773 -46.46552 2461 ft 16 kts 253°
2026-04-22 00:12 -23.42805 -46.46664 2469 ft 15 kts 252°
2026-04-22 00:12 -23.42833 -46.46772 2462 ft 15 kts 254°
2026-04-22 00:12 -23.42862 -46.46876 2461 ft 14 kts 252°
2026-04-22 00:13 -23.42891 -46.46978 2461 ft 15 kts 255°
2026-04-22 00:13 -23.42894 -46.47090 2464 ft 16 kts 300°
2026-04-22 00:13 -23.42862 -46.47197 2458 ft 16 kts 253°
2026-04-22 00:13 -23.42893 -46.47308 2455 ft 15 kts 255°
2026-04-22 00:14 -23.42921 -46.47416 2451 ft 14 kts 258°
2026-04-22 00:14 -23.42880 -46.47505 2450 ft 13 kts 289°
2026-04-22 00:14 -23.42887 -46.47598 2450 ft 12 kts 255°
2026-04-22 00:14 -23.42868 -46.47668 2453 ft 10 kts 330°
2026-04-22 00:15 -23.42834 -46.47682 2450 ft 0 kts 343°